[[{"header":{"parameterUnit":"m.s-1","parameterCategory":1,"la1":30.2991,"la2":30.254,"lo1":-89.0895,"lo2":-89.0444,"dy":0.0017,"dx":0.0017,"nx":28,"ny":28,"refTime":"2024-04-28T03:00:00:Z","depth":0,"parameterNumber":2,"parameterNumberName":"U-component_of_WINDS"},"data":[0,0,0,0,0,0,0,0,0,0,0,0,0,0,0,0,0,0,0,0,0,0,0,0,0,0,0,0,0,0,0,0,0,0,0,0,0,0,0,0,0,0,0,0,0,0,0,0,0,0,0,0,0,0,0,0,0,0,-5.792,-5.7922,0,-5.8072,-5.8074,-5.8076,-5.8081,-5.8079,-5.8078,-5.8076,-5.8229,-5.8235,-5.8241,0,0,0,0,0,0,0,0,0,0,0,0,0,-5.7633,-5.7638,-5.792,-5.7922,-5.7924,-5.8072,-5.8074,-5.8076,-5.8081,-5.8079,-5.8077,-5.8075,-5.8228,-5.8234,-5.8241,0,0,0,0,0,0,0,0,0,0,0,0,0,-5.7768,-5.764,-5.792,-5.7944,-5.7948,-5.8072,-5.8074,-5.8077,-5.8082,-5.8079,-5.8076,-5.8074,-5.8225,-5.8234,-5.8242,-5.8351,0,0,-5.8269,-5.8273,0,0,0,0,0,0,0,0,-5.7761,-5.7779,-5.7939,-5.7943,-5.7947,-5.8055,-5.8029,-5.8168,-5.8083,-5.8031,-5.8076,-5.8073,-5.8173,-5.8186,-5.8221,-5.8358,-5.8364,-5.827,-5.8275,-5.8279,-5.8281,0,0,0,0,0,0,0,-5.7751,-5.7772,-5.798,-5.7941,-5.7946,-5.7948,-5.7964,-5.8056,-5.8116,-5.8035,-5.8036,-5.8054,-5.8175,-5.8212,-5.8224,-5.8367,-5.8269,-5.8277,-5.8282,-5.8286,-5.86,-5.8603,0,0,0,0,0,0,-5.7737,-5.7765,-5.7975,-5.7985,-5.7845,-5.7955,-5.7973,-5.8023,-5.8115,-5.8126,-5.8056,-5.8054,-5.8199,-5.8214,-5.823,-5.8362,-5.8279,-5.8287,-5.8292,-5.8597,-5.8601,-5.8604,0,0,0,0,0,0,-5.7731,-5.7756,-5.7969,-5.7875,-5.7902,-5.7963,-5.8019,-5.8028,-5.8065,-5.8131,-5.8141,-5.8083,-5.8197,-5.8218,-5.8321,-5.8367,-5.8291,-5.8298,-5.8594,-5.8598,-5.8603,-5.8627,0,0,0,0,0,0,-5.7723,-5.7754,-5.7796,-5.7876,-5.7907,-5.8058,-5.8022,-5.8033,-5.808,-5.8078,-5.8159,-5.8169,-5.8197,-5.8308,-5.8329,-5.8378,-5.8305,-5.859,-5.8596,-5.8601,-5.8622,-5.8632,-5.864,0,0,0,0,0,-5.7713,-5.7796,-5.7798,-5.7823,-5.7961,-5.806,-5.8078,-5.8109,-5.8084,-5.8126,-5.8169,-5.8167,-5.8359,-5.8318,-5.8343,-5.8394,-5.8587,-5.8594,-5.8601,-5.8618,-5.863,-5.864,0,0,0,0,0,0,-5.7718,-5.7807,-5.781,-5.7922,-5.7984,-5.8061,-5.8115,-5.812,-5.819,-5.8185,-5.822,-5.8238,-5.834,-5.8378,-5.8331,-5.8504,-5.847,-5.8482,-5.8475,-5.8486,-5.8495,-5.8482,-5.8312,0,0,0,0,0,-5.7733,-5.7807,-5.788,-5.7972,-5.8003,-5.8054,-5.8098,-5.8117,-5.8182,-5.8208,-5.8258,-5.8321,-5.8395,-5.8444,-5.8516,-5.8629,-5.8646,-5.8677,-5.8686,-5.8693,-5.8702,-5.8763,-5.8777,-5.8628,-5.8628,-5.8627,0,0,-5.7763,-5.782,-5.7865,-5.7974,-5.8024,-5.8099,-5.8076,-5.8156,-5.8212,-5.822,-5.832,-5.8359,-5.8432,-5.854,-5.859,-5.8575,-5.8748,-5.8702,-5.8707,-5.8712,-5.8772,-5.8786,-5.8799,-5.8632,-5.8632,-5.8631,0,0,-5.7855,-5.7907,-5.7989,-5.804,-5.8117,-5.8151,-5.817,-5.8248,-5.8275,-5.8376,-5.8384,-5.8451,-5.8579,-5.863,-5.8673,-5.8788,-5.8788,-5.881,-5.8856,-5.8916,-5.8927,-5.8938,-5.8977,-5.899,-5.882,-5.882,-5.882,0,-5.7882,-5.7996,-5.803,-5.8111,-5.8158,-5.8171,-5.8253,-5.8301,-5.8397,-5.843,-5.8412,-5.8573,-5.8623,-5.8743,-5.8771,-5.8806,-5.8829,-5.8799,-5.8923,-5.8934,-5.8944,-5.8982,-5.8997,-5.8822,-5.8822,-5.8822,-5.8822,0,-5.8025,-5.8104,-5.8161,-5.8254,-5.8309,-5.839,-5.8435,-5.8487,-5.8501,-5.8537,-5.864,-5.8701,-5.8786,-5.8816,-5.8831,-5.8939,-5.8927,-5.8916,-5.8882,-5.896,-5.8996,-5.901,-5.8825,-5.8824,-5.8824,-5.8823,0,0,-5.8122,-5.8235,-5.8254,-5.8297,-5.8384,-5.8445,-5.8528,-5.8611,-5.8654,-5.8721,-5.8789,-5.8899,-5.889,-5.8938,-5.896,-5.9012,-5.9097,-5.8995,-5.8997,-5.901,-5.9218,-5.9223,-5.9239,-5.91,-5.9103,-5.9105,-5.9211,0,-5.8222,-5.8368,-5.8402,-5.8527,-5.86,-5.8614,-5.8686,-5.8747,-5.8783,-5.885,-5.889,-5.8966,-5.895,-5.8979,-5.9032,-5.9076,-5.9139,-5.9069,-5.9162,-5.9165,-5.914,-5.9258,-5.9264,-5.9361,-5.9225,-5.9228,-5.923,0,-5.8357,-5.8428,-5.856,-5.8638,-5.867,-5.8733,-5.8813,-5.8878,-5.8947,-5.897,-5.9025,-5.9042,-5.9127,-5.9092,-5.921,-5.9161,-5.9202,-5.923,-5.9234,-5.9241,-5.9199,-5.9266,-5.9392,-5.9406,-5.9252,-5.925,-5.9249,0,-5.8411,-5.854,-5.8636,-5.8672,-5.8766,-5.881,-5.8851,-5.8918,-5.8966,-5.9037,-5.9068,-5.9147,-5.919,-5.9251,-5.9288,-5.9259,-5.9402,-5.937,-5.9422,-5.9421,-5.9448,-5.9445,-5.958,-5.948,-5.948,-5.9479,-5.9479,0,-5.8518,-5.8598,-5.8661,-5.872,-5.881,-5.8849,-5.8937,-5.8978,-5.9038,-5.9104,-5.9123,-5.9185,-5.9231,-5.93,-5.933,-5.9422,-5.9442,-5.9462,-5.9468,-5.9458,-5.9455,-5.9483,-5.9476,-5.9483,-5.9482,-5.9482,-5.9481,0,-5.8592,-5.8638,-5.8743,-5.8824,-5.8846,-5.8909,-5.8978,-5.9035,-5.9073,-5.9157,-5.9179,-5.9238,-5.932,-5.9364,-5.9466,-5.9486,-5.9589,-5.9593,-5.9565,-5.9567,-5.9615,-5.9609,-5.977,-5.9792,-5.9679,-5.968,-5.9681,0,-5.8655,-5.8717,-5.8805,-5.8851,-5.8893,-5.8967,-5.9017,-5.9058,-5.9109,-5.9194,-5.9241,-5.9324,-5.9392,-5.9522,-5.9574,-5.9652,-5.9656,-5.9708,-5.9668,-5.9656,-5.9654,-5.9649,-5.9654,-5.9713,-5.9714,-5.9715,-5.9716,0,-5.8761,-5.8782,-5.8853,-5.8933,-5.8992,-5.9057,-5.9121,-5.9157,-5.9209,-5.9266,-5.935,-5.9403,-5.9508,-5.959,-5.9672,-5.9714,-5.9723,-5.9729,-5.9744,-5.9733,-5.9713,-5.9722,-5.958,-5.9724,-5.9723,-5.9722,-5.9722,-5.9721,-5.883,-5.8886,-5.8956,-5.9035,-5.9088,-5.9148,-5.9205,-5.9251,-5.9322,-5.9411,-5.9432,-5.952,-5.9589,-5.9701,-5.9746,-5.9815,-5.9805,-5.9828,-5.9833,-5.9838,-5.9838,-5.9705,-5.9831,-5.9831,-5.983,-5.983,-5.983,0,-5.8935,-5.8982,-5.9055,-5.9144,-5.9206,-5.9212,-5.9283,-5.9334,-5.9412,-5.9476,-5.9543,-5.964,-5.972,-5.9779,-5.986,-5.9904,-5.991,-5.9924,-5.9919,-5.9928,-5.9844,-5.9821,-5.9917,-5.9917,-5.9917,-5.9917,-5.9917,-5.9917,-5.8997,-5.9091,-5.912,-5.924,-5.9286,-5.9373,-5.9413,-5.9468,-5.952,-5.9627,-5.9693,-5.9732,-5.9794,-5.988,-5.9954,-5.9969,-5.9997,-6.001,-6.0025,-5.9944,-5.9934,-5.9925,-5.9904,-6.0016,-6.0016,-6.0103,-6.0104,-6.0105]},{"header":{"parameterUnit":"m.s-1","parameterCategory":1,"la1":30.2991,"la2":30.254,"lo1":-89.0895,"lo2":-89.0444,"dy":0.0017,"dx":0.0017,"nx":28,"ny":28,"refTime":"2024-04-28T03:00:00:Z","depth":0,"parameterNumber":3,"parameterNumberName":"V-component_of_WINDS"},"data":[0,0,0,0,0,0,0,0,0,0,0,0,0,0,0,0,0,0,0,0,0,0,0,0,0,0,0,0,0,0,0,0,0,0,0,0,0,0,0,0,0,0,0,0,0,0,0,0,0,0,0,0,0,0,0,0,0,0,5.3271,5.3272,0,5.3325,5.3326,5.3326,5.3314,5.3313,5.3312,5.3311,5.3362,5.3364,5.3367,0,0,0,0,0,0,0,0,0,0,0,0,0,5.3155,5.3157,5.3271,5.3272,5.3272,5.3325,5.3326,5.3326,5.3314,5.3313,5.3312,5.3311,5.3361,5.3364,5.3367,0,0,0,0,0,0,0,0,0,0,0,0,0,5.3207,5.3158,5.3271,5.3273,5.3273,5.3325,5.3326,5.3327,5.3315,5.3313,5.3312,5.331,5.3361,5.3364,5.3367,5.3419,0,0,5.3378,5.3379,0,0,0,0,0,0,0,0,5.3204,5.3211,5.3272,5.3273,5.3274,5.3311,5.3303,5.3357,5.3315,5.3299,5.3311,5.3309,5.3346,5.3351,5.3364,5.3421,5.3423,5.3378,5.338,5.3382,5.3383,0,0,0,0,0,0,0,5.32,5.3208,5.3292,5.3273,5.3274,5.327,5.3276,5.3314,5.333,5.33,5.3299,5.3306,5.3346,5.3361,5.3365,5.3424,5.3378,5.3381,5.3383,5.3384,5.3528,5.353,0,0,0,0,0,0,5.3196,5.3206,5.329,5.3294,5.3234,5.3274,5.328,5.3301,5.333,5.3333,5.3307,5.3305,5.3356,5.3361,5.3367,5.343,5.3382,5.3385,5.3387,5.3526,5.3529,5.353,0,0,0,0,0,0,5.3194,5.3204,5.3288,5.325,5.326,5.3277,5.3301,5.3303,5.3317,5.3335,5.3338,5.3319,5.3355,5.3362,5.3407,5.3432,5.3386,5.3389,5.3524,5.3527,5.353,5.3557,0,0,0,0,0,0,5.3191,5.3203,5.3223,5.325,5.3262,5.3328,5.3302,5.3305,5.3323,5.3321,5.3347,5.335,5.3354,5.3402,5.341,5.3436,5.3392,5.3522,5.3526,5.3529,5.3554,5.356,5.3566,0,0,0,0,0,5.3186,5.3227,5.3224,5.3234,5.3288,5.3329,5.3336,5.3341,5.3326,5.3346,5.3358,5.3349,5.3428,5.3406,5.3416,5.3443,5.3521,5.3525,5.3528,5.3551,5.3559,5.3565,0,0,0,0,0,0,5.32,5.323,5.3228,5.3278,5.3302,5.3327,5.3352,5.3349,5.3376,5.3372,5.3377,5.3383,5.3429,5.344,5.3415,5.3495,5.3472,5.3478,5.3486,5.3494,5.3499,5.3495,5.3395,0,0,0,0,0,5.3209,5.3242,5.3266,5.3309,5.3321,5.3335,5.3353,5.3356,5.3379,5.3388,5.3404,5.3426,5.3456,5.3475,5.3504,5.3556,5.3562,5.3579,5.3585,5.359,5.3595,5.3625,5.3633,5.3543,5.3543,5.3543,0,0,5.3228,5.3249,5.3268,5.3312,5.333,5.3363,5.3343,5.3378,5.3402,5.3393,5.3437,5.3449,5.3474,5.3524,5.3546,5.3535,5.3622,5.3595,5.3599,5.3601,5.363,5.3639,5.3646,5.3546,5.3546,5.3545,0,0,5.3279,5.3298,5.3337,5.3356,5.3385,5.3395,5.3404,5.3431,5.344,5.3485,5.3479,5.3508,5.3559,5.3578,5.3594,5.3656,5.3649,5.3665,5.3696,5.3725,5.3732,5.3739,5.3762,5.377,5.367,5.367,5.3671,0,5.3298,5.3349,5.3356,5.3393,5.3413,5.3409,5.3448,5.3466,5.3502,5.3516,5.3503,5.357,5.3586,5.364,5.3656,5.3669,5.368,5.3662,5.3731,5.3737,5.3743,5.3765,5.3774,5.3672,5.3672,5.3672,5.3672,0,5.3371,5.3407,5.3434,5.3472,5.3495,5.3533,5.3546,5.3568,5.3569,5.358,5.3627,5.3647,5.3681,5.3694,5.3694,5.3749,5.3741,5.373,5.3706,5.3754,5.3774,5.3783,5.3675,5.3674,5.3674,5.3673,0,0,5.343,5.3475,5.3485,5.3503,5.3536,5.3563,5.3601,5.3636,5.3656,5.3681,5.3714,5.3759,5.3749,5.3768,5.3771,5.3797,5.3846,5.3782,5.3783,5.3794,5.3909,5.3918,5.3927,5.3842,5.3844,5.3845,5.3907,0,5.3485,5.3554,5.3563,5.3624,5.3657,5.3655,5.3689,5.3713,5.3725,5.3754,5.3767,5.3799,5.3784,5.3796,5.3821,5.3835,5.3869,5.383,5.3872,5.3873,5.3866,5.3938,5.3947,5.4004,5.3915,5.3917,5.3918,0,5.3557,5.3588,5.3653,5.3685,5.3699,5.3729,5.3763,5.3791,5.3819,5.3826,5.3849,5.3849,5.3888,5.3864,5.3919,5.3892,5.391,5.392,5.3922,5.3926,5.3898,5.3944,5.4023,5.4031,5.393,5.3929,5.3929,0,5.3595,5.3652,5.3699,5.3715,5.3752,5.3774,5.379,5.3816,5.3838,5.3867,5.3881,5.3914,5.3932,5.3958,5.3967,5.3949,5.4022,5.3998,5.4028,5.4028,5.4043,5.4042,5.4126,5.4055,5.4054,5.4054,5.4054,0,5.3655,5.3695,5.3717,5.3746,5.3791,5.3802,5.3846,5.3861,5.3885,5.3916,5.3916,5.3945,5.3956,5.3987,5.3995,5.404,5.4047,5.4054,5.4056,5.4054,5.4054,5.4065,5.4062,5.4057,5.4056,5.4056,5.4055,0,5.3704,5.3721,5.3772,5.3805,5.3814,5.3846,5.3873,5.3901,5.3914,5.3954,5.3964,5.3984,5.402,5.4033,5.4077,5.4082,5.4134,5.4132,5.4126,5.4126,5.4156,5.4153,5.425,5.4264,5.4184,5.4184,5.4185,0,5.3741,5.3772,5.381,5.3832,5.385,5.3885,5.3908,5.392,5.3944,5.3979,5.4003,5.404,5.4071,5.413,5.4147,5.4181,5.418,5.4212,5.4185,5.4183,5.4181,5.418,5.4183,5.4217,5.4217,5.4218,5.4219,0,5.3806,5.3814,5.3847,5.3885,5.3913,5.3942,5.3971,5.3989,5.4005,5.4032,5.4071,5.4095,5.4141,5.4178,5.4214,5.423,5.4227,5.4228,5.4236,5.4235,5.4231,5.4234,5.414,5.4225,5.4224,5.4224,5.4223,5.4223,5.3851,5.3879,5.3911,5.3949,5.3973,5.4,5.4029,5.4047,5.408,5.4121,5.4125,5.4168,5.4196,5.4244,5.4262,5.4295,5.4286,5.4298,5.4302,5.4305,5.4308,5.4226,5.4301,5.4301,5.4301,5.4301,5.4301,0,5.3916,5.3937,5.3973,5.4014,5.4045,5.4042,5.4074,5.4099,5.4137,5.4165,5.4196,5.4242,5.4279,5.4301,5.4337,5.436,5.436,5.4369,5.4367,5.4371,5.4313,5.4302,5.4369,5.4369,5.4369,5.4369,5.4369,5.4369,5.3954,5.4003,5.4015,5.4076,5.4096,5.4139,5.4158,5.4183,5.4206,5.4258,5.429,5.4304,5.433,5.4369,5.4403,5.4408,5.4422,5.4432,5.4437,5.4382,5.4375,5.4368,5.4358,5.4435,5.4435,5.4492,5.4493,5.4493]}]]